TimeEST,TemperatureF,Dew PointF,Humidity,Sea Level PressureIn,VisibilityMPH,Wind Direction,Wind SpeedMPH,Gust SpeedMPH,PrecipitationIn,Events,Conditions,WindDirDegrees,DateUTC
12:16 AM,26.6,19.4,74,29.98,10.0,NW,12.7,-,N/A,,Overcast,320,2013-12-30 05:16:00
12:36 AM,26.6,19.4,74,29.99,10.0,NW,15.0,19.6,N/A,,Overcast,320,2013-12-30 05:36:00
12:56 AM,24.8,17.6,74,29.99,10.0,NW,15.0,21.9,N/A,Snow,Light Snow,310,2013-12-30 05:56:00
1:16 AM,24.8,17.6,74,30.00,10.0,NW,13.8,-,N/A,,Overcast,310,2013-12-30 06:16:00
1:32 AM,24.8,17.6,74,30.01,10.0,NW,11.5,-,N/A,,Overcast,320,2013-12-30 06:32:00
1:52 AM,23.0,15.8,74,30.02,10.0,WNW,12.7,-,N/A,Snow,Light Snow,300,2013-12-30 06:52:00
2:12 AM,23.0,15.8,74,30.03,10.0,NW,13.8,19.6,N/A,Snow,Light Snow,310,2013-12-30 07:12:00
2:32 AM,23.0,15.8,74,30.05,2.5,NW,10.4,17.3,N/A,Snow,Light Snow,310,2013-12-30 07:32:00
2:52 AM,21.2,12.2,68,30.06,5.0,NW,13.8,-,N/A,Snow,Light Snow,320,2013-12-30 07:52:00
3:12 AM,21.2,12.2,68,30.08,7.0,NW,12.7,-,N/A,Snow,Light Snow,320,2013-12-30 08:12:00
3:32 AM,21.2,12.2,68,30.09,7.0,NW,9.2,-,N/A,Snow,Light Snow,320,2013-12-30 08:32:00
3:53 AM,21.2,10.4,63,30.10,7.0,WNW,13.8,18.4,N/A,Snow,Light Snow,300,2013-12-30 08:53:00
4:13 AM,19.4,10.4,68,30.10,10.0,NW,13.8,-,N/A,,Overcast,310,2013-12-30 09:13:00
4:33 AM,19.4,8.6,63,30.11,10.0,NNW,13.8,-,N/A,,Mostly Cloudy,330,2013-12-30 09:33:00
4:53 AM,19.4,8.6,63,30.12,10.0,NW,11.5,17.3,N/A,,Overcast,320,2013-12-30 09:53:00
5:13 AM,19.4,8.6,63,30.12,10.0,NNW,11.5,17.3,N/A,,Overcast,330,2013-12-30 10:13:00
5:33 AM,19.4,6.8,58,30.13,10.0,NW,10.4,16.1,N/A,,Overcast,320,2013-12-30 10:33:00
5:53 AM,19.4,6.8,58,30.14,10.0,NW,12.7,18.4,N/A,,Overcast,320,2013-12-30 10:53:00
6:13 AM,17.6,6.8,63,30.14,10.0,NNW,15.0,18.4,N/A,,Mostly Cloudy,330,2013-12-30 11:13:00
6:33 AM,17.6,6.8,63,30.15,10.0,NW,10.4,17.3,N/A,,Mostly Cloudy,320,2013-12-30 11:33:00
6:53 AM,17.6,5.0,58,30.16,10.0,NNW,6.9,-,N/A,,Overcast,340,2013-12-30 11:53:00
7:13 AM,17.6,5.0,58,30.18,10.0,North,5.8,-,N/A,,Overcast,350,2013-12-30 12:13:00
7:33 AM,17.6,5.0,58,30.17,10.0,North,4.6,-,N/A,,Overcast,350,2013-12-30 12:33:00
7:53 AM,17.6,5.0,58,30.19,10.0,NNW,3.5,-,N/A,,Overcast,330,2013-12-30 12:53:00
8:14 AM,17.6,5.0,58,30.20,10.0,NW,3.5,-,N/A,,Overcast,320,2013-12-30 13:14:00
8:34 AM,17.6,5.0,58,30.21,10.0,North,5.8,-,N/A,,Mostly Cloudy,350,2013-12-30 13:34:00
8:54 AM,17.6,5.0,58,30.22,10.0,NNE,5.8,-,N/A,,Overcast,20,2013-12-30 13:54:00
9:14 AM,17.6,5.0,58,30.23,10.0,North,4.6,-,N/A,,Overcast,10,2013-12-30 14:14:00
9:34 AM,17.6,5.0,58,30.24,10.0,North,5.8,-,N/A,,Overcast,350,2013-12-30 14:34:00
9:54 AM,19.4,6.8,58,30.24,10.0,NNE,6.9,-,N/A,,Overcast,20,2013-12-30 14:54:00
10:14 AM,19.4,6.8,58,30.24,10.0,North,8.1,-,N/A,,Overcast,360,2013-12-30 15:14:00
10:34 AM,19.4,6.8,58,30.24,10.0,NW,8.1,-,N/A,,Overcast,320,2013-12-30 15:34:00
10:54 AM,19.4,6.8,58,30.24,10.0,North,4.6,-,N/A,,Overcast,360,2013-12-30 15:54:00
11:15 AM,19.4,6.8,58,30.23,10.0,WNW,4.6,-,N/A,,Overcast,290,2013-12-30 16:15:00
11:35 AM,19.4,6.8,58,30.23,10.0,NNW,3.5,-,N/A,,Overcast,330,2013-12-30 16:35:00
11:55 AM,21.2,6.8,54,30.22,10.0,NW,4.6,-,N/A,,Overcast,310,2013-12-30 16:55:00
12:15 PM,19.4,6.8,58,30.22,10.0,NW,5.8,-,N/A,,Overcast,310,2013-12-30 17:15:00
12:35 PM,21.2,6.8,54,30.22,10.0,NW,5.8,-,N/A,,Overcast,320,2013-12-30 17:35:00
12:55 PM,21.2,6.8,54,30.21,10.0,West,6.9,-,N/A,,Overcast,270,2013-12-30 17:55:00
1:15 PM,21.2,6.8,54,30.20,10.0,WNW,3.5,-,N/A,,Overcast,300,2013-12-30 18:15:00
1:35 PM,21.2,8.6,58,30.19,10.0,NNW,4.6,-,N/A,,Overcast,330,2013-12-30 18:35:00
1:55 PM,21.2,8.6,58,30.19,10.0,West,3.5,-,N/A,,Overcast,270,2013-12-30 18:55:00
2:15 PM,21.2,10.4,63,30.19,10.0,WNW,4.6,-,N/A,,Overcast,290,2013-12-30 19:15:00
2:36 PM,21.2,10.4,63,30.18,10.0,West,4.6,-,N/A,,Overcast,280,2013-12-30 19:36:00
2:56 PM,21.2,10.4,63,30.17,10.0,WNW,5.8,-,N/A,,Overcast,290,2013-12-30 19:56:00
3:16 PM,21.2,10.4,63,30.17,10.0,Calm,Calm,-,N/A,,Overcast,0,2013-12-30 20:16:00
3:36 PM,21.2,10.4,63,30.17,10.0,Calm,Calm,-,N/A,,Overcast,0,2013-12-30 20:36:00
3:56 PM,21.2,10.4,63,30.17,10.0,Calm,Calm,-,N/A,Snow,Light Snow,0,2013-12-30 20:56:00
4:16 PM,21.2,10.4,63,30.17,10.0,Calm,Calm,-,N/A,,Overcast,0,2013-12-30 21:16:00
4:36 PM,21.2,10.4,63,30.17,10.0,Calm,Calm,-,N/A,,Overcast,0,2013-12-30 21:36:00
4:56 PM,21.2,10.4,63,30.18,10.0,South,5.8,-,N/A,,Overcast,180,2013-12-30 21:56:00
5:16 PM,21.2,15.8,80,30.17,7.0,SSE,5.8,-,N/A,Snow,Light Snow,160,2013-12-30 22:16:00
5:36 PM,19.4,15.8,86,30.16,7.0,SE,4.6,-,N/A,Snow,Light Snow,140,2013-12-30 22:36:00
5:56 PM,19.4,15.8,86,30.16,10.0,SE,3.5,-,N/A,,Overcast,140,2013-12-30 22:56:00
6:17 PM,21.2,15.8,80,30.16,10.0,Calm,Calm,-,N/A,,Overcast,0,2013-12-30 23:17:00
6:32 PM,21.2,15.8,80,30.16,10.0,Calm,Calm,-,N/A,,Overcast,0,2013-12-30 23:32:00
6:52 PM,21.2,15.8,80,30.16,10.0,SSE,3.5,-,N/A,,Overcast,160,2013-12-30 23:52:00
7:12 PM,21.2,15.8,80,30.16,10.0,South,4.6,-,N/A,,Overcast,170,2013-12-31 00:12:00
7:32 PM,21.2,15.8,80,30.16,7.0,South,6.9,-,N/A,Snow,Light Snow,170,2013-12-31 00:32:00
7:52 PM,21.2,15.8,80,30.16,10.0,South,6.9,-,N/A,,Overcast,170,2013-12-31 00:52:00
8:12 PM,21.2,15.8,80,30.15,10.0,South,5.8,-,N/A,,Overcast,190,2013-12-31 01:12:00
8:32 PM,21.2,15.8,80,30.15,10.0,South,5.8,-,N/A,,Overcast,180,2013-12-31 01:32:00
8:53 PM,21.2,15.8,80,30.15,10.0,South,5.8,-,N/A,,Overcast,180,2013-12-31 01:53:00
9:13 PM,21.2,15.8,80,30.14,10.0,South,5.8,-,N/A,,Overcast,180,2013-12-31 02:13:00
9:33 PM,21.2,15.8,80,30.13,10.0,South,5.8,-,N/A,,Overcast,190,2013-12-31 02:33:00
9:53 PM,21.2,15.8,80,30.13,10.0,SSW,4.6,-,N/A,Snow,Light Snow,200,2013-12-31 02:53:00
10:13 PM,21.2,17.6,86,30.13,7.0,SW,3.5,-,N/A,Snow,Light Snow,220,2013-12-31 03:13:00
10:33 PM,21.2,17.6,86,30.12,7.0,SSW,5.8,-,N/A,Snow,Light Snow,200,2013-12-31 03:33:00
10:53 PM,21.2,17.6,86,30.11,7.0,SSW,4.6,-,N/A,Snow,Light Snow,210,2013-12-31 03:53:00
11:13 PM,21.2,17.6,86,30.10,10.0,SSW,4.6,-,N/A,Snow,Light Snow,210,2013-12-31 04:13:00
11:33 PM,21.2,17.6,86,30.10,7.0,SW,3.5,-,N/A,Snow,Light Snow,230,2013-12-31 04:33:00
11:53 PM,21.2,17.6,86,30.09,1.2,WSW,5.8,-,N/A,Snow,Light Snow,240,2013-12-31 04:53:00